Regional Weather Roundup
Issued by NWS

Home | Current Version | Previous Version | Text Only | Print | Product List | Glossary On
Versions: 1 2 3 4 5 6 7 8 9 10 11 12 13 14 15 16 17 18 19 20 21 22 23 24 25 26 27 28 29 30 31 32 33 34 35 36 37 38 39 40 41 42 43 44 45 46 47 48 49 50
000
ASUS45 KBOU 072110
RWRCO

WEATHER ROUNDUP FOR COLORADO
NATIONAL WEATHER SERVICE DENVER/BOULDER CO
300 PM MDT TUE JUL 07 2015

NOTE: "FAIR" INDICATES FEW OR NO CLOUDS BELOW 12000 FEET WITH NO
SIGNIFICANT WEATHER AND/OR OBSTRUCTIONS TO VISIBILITY.

COZ001>005-013-030-031-072200-
...NORTHWEST COLORADO...

CITY           SKY/WX    TMP DP  RH WIND       PRES   REMARKS
CRAIG          LGT RAIN  64  54  69 W12       30.14S
HAYDEN         CLOUDY    64  50  59 S9        30.16F THUNDER
MEEKER         CLOUDY    61  55  81 E3        30.16F
MOUNT WERNER   NOT AVBL
STEAMBOAT SPGS CLOUDY    61  52  73 CALM      30.19R
WALDEN         CLOUDY    61  46  59 S12       30.23F
$$

COZ006>008-011-072200-
...WEST CENTRAL VALLEYS...

CITY           SKY/WX    TMP DP  RH WIND       PRES   REMARKS
GRAND JUNCTION TSTM      65  62  90 S7        30.06F
MONTROSE       MOSUNNY   78  47  33 E12       30.10F
EAGLE          MOSUNNY   70  52  52 CALM      30.18F
RIFLE          LGT RAIN  65  58  78 SE8       30.11F
DELTA          MOSUNNY   79  48  33 CALM      30.07F
NUCLA          CLOUDY    64  54  68 NW10G20   30.16S
$$

COZ017>023-064>068-072200-
...SOUTHWEST COLORADO...

CITY           SKY/WX    TMP DP  RH WIND       PRES   REMARKS
DURANGO        LGT RAIN  55  54  96 NE8       30.19F
CORTEZ         PTSUNNY   72  56  57 E10       30.11F
PAGOSA SPRINGS PTSUNNY   65  52  63 CALM      30.26F
TELLURIDE      PTSUNNY   58  48  71 CALM      30.35F
WOLF CREEK PAS NOT AVBL
$$

COZ009-010-012-014-032>034-037-058>063-072200-
...CENTRAL COLORADO...

CITY           SKY/WX    TMP DP  RH WIND       PRES   REMARKS
ASPEN          LGT RAIN  58  52  80 W7        30.26R
BUENA VISTA    NOT AVBL
COPPER MTN     PTSUNNY   52  45  76 SW7       30.51S
BERTHOUD PASS  CLOUDY    41  32  70 NW9       30.54F THUNDER HAZE
COTTONWOOD PAS NOT AVBL
GUNNISON       PTSUNNY   64  48  55 SW6       30.27F
KREMMLING      CLOUDY    63  48  59 N8        30.22F
LEADVILLE      NOT AVBL
SALIDA         CLOUDY    58  55  89 SE7       30.34R
SUNLIGHT       RAIN      52  50  93 CALM      30.46S
WILKERSON PASS CLOUDY    45  43  93 NW3       30.50S
$$

COZ069>075-072200-
...SAN LUIS VALLEY/SANGRE DE CRISTO MOUNTAINS...

CITY           SKY/WX    TMP DP  RH WIND       PRES   REMARKS
ALAMOSA        PTSUNNY   67  54  63 S10       30.23F
LA VETA PASS   CLOUDY    46  45  93 MISG      30.42F FOG
SAGUACHE       CLOUDY    55  52  88 W6        30.27F
$$

COZ035-036-038>040-072200-
...NORTHERN COLORADO FRONT RANGE...

CITY           SKY/WX    TMP DP  RH WIND       PRES   REMARKS
DENVER INTL AP CLOUDY    69  52  54 SE17G24   30.13R HAZE
DMNS CITY PARK   N/A     67  55  66 W2G13     30.14R
AURORA         CLOUDY    65  53  64 S14       30.16S HAZE
FRONT RANGE AP PTSUNNY   68  54  60 SE16G26   30.16S HAZE
ERIE MUNI ARPT CLOUDY    66  58  75 NW9       30.13S HAZE
BOULDER MUN AP CLOUDY    64  59  82 N5        30.14F HAZE
CENTENNIAL     CLOUDY    63  53  70 S14       30.16F HAZE
BROOMFIELD     LGT RAIN  64  57  77 NW15      30.16
FORT COLLINS   CLOUDY    66  55  68 NW6       30.14F
LONGMONT       CLOUDY    67  60  79 NW7       30.15F HAZE
$$

COZ041-046-047-076>085-087-088-072200-
...PIKES PEAK/PALMER DIVIDE AND SOUTHERN FOOTHILLS...

CITY           SKY/WX    TMP DP  RH WIND       PRES   REMARKS
COLO. SPRINGS  CLOUDY    57  52  83 S15       30.23F HAZE
A. F. ACADEMY  CLOUDY    53  53  99 S12       30.23F FOG
ELLICOTT       PTSUNNY  N/A N/A N/A S14       30.21F HAZE
FALCON         CLOUDY    55  51  86 S16       30.26F FOG
FORT CARSON    PTSUNNY   58  53  82 S10       30.21F FOG
LIMON          CLOUDY    68  49  50 S16G28    30.18F
MONUMENT HILL  CLOUDY    54  50  87 MISG      30.24S FOG
TRINIDAD       CLOUDY    66  53  63 CALM      30.20F HAZE
$$

COZ042>045-048>051-090-091-072200-
...NORTHEAST COLORADO...

CITY           SKY/WX    TMP DP  RH WIND       PRES   REMARKS
GREELEY ARPT   CLOUDY    73  54  49 SE12      30.12F
AKRON          PTSUNNY   73  48  41 SE21G26   30.15F
BURLINGTON     MOSUNNY   75  44  33 SE14G23   30.16F
WRAY           PTSUNNY   76  44  31 SE14G23   30.14F
STERLING       CLOUDY    75  50  41 S14G22    30.11F
HOLYOKE        MOSUNNY   77  48  36 SE13G20   30.14F
FORT MORGAN    CLOUDY    72  48  41 SE10G18   30.13F
$$

COZ086-089-092>099-072200-
...SOUTHEAST COLORADO...

CITY           SKY/WX    TMP DP  RH WIND       PRES   REMARKS
PUEBLO         CLOUDY    69  51  52 CALM      30.15F HAZE
LA JUNTA       MOSUNNY   76  48  37 SE8G17    30.13F
LAMAR          SUNNY     78  46  32 E7        30.11F HAZE
SPRINGFIELD      N/A     74  47  38 MISG      30.15F
$$



USA.gov is the U.S. government's official web portal to all federal, state and local government web resources and services.